Location: College Park
(38.9810°N, 76.9370°W)
Time: 15:52:36
(UTC-05:00)

ISS - Pass Details

Date: 17 November 2017
Orbit: 402 x 407 km, 51.6° (Epoch: 21 November)

Event Time Altitude Azimuth Distance (km) Brightness Sun altitude
Exits shadow 04:59:04 50° 64° (ENE) 519 -3.1 -22.1°
Drops below altitude 10° 05:01:54 10° 114° (ESE) 1,447 0.0 -21.5°
Sets 05:04:00 0° 119° (ESE) 2,303 1.2 -21.1°
